This demonstration page uses our WeatherBlox Daily Observations layout. Learn more.

Left ArrowRight Arrow

39.08367, -84.50855

Hourly Observations for May 17, 2019

Temp ( °F °C ) Dew Point ( °F °C ) Humidity (%) Winds ( mph kmh ) Pressure ( in mb ) Visibility ( mi km ) Precip ( " mm )
12:53 am 00:53 Partly Cloudy 63 17.2 60 15.6 90 90 SSW 7 11 29.8 1009 10 16.0934 0 0
1:53 am 01:53 Partly Cloudy 62 16.7 60 15.6 93 93 WSW 5 7 29.8 1009 10 16.0934 0 0
2:53 am 02:53 Clear 63 17.2 60 15.6 90 90 SW 5 7 29.8 1009 10 16.0934 0 0
3:53 am 03:53 Clear 63 17.2 59 15 87 87 SW 5 7 29.8 1009 10 16.0934 0 0
4:53 am 04:53 Clear 63 17.2 60 15.6 90 90 SSW 6 9 29.82 1010 10 16.0934 0 0
5:53 am 05:53 Cloudy 66 18.9 61 16.1 84 84 undefined N/A 29.85 1011 10 16.0934 0 0
6:16 am 06:16 Cloudy 65 18.3 61 16.1 87 87 NNE 6 9 29.86 1011 10 16.0934 0 0
6:33 am 06:33 Partly Cloudy 64 17.8 61 16.1 90 90 WSW 5 7 29.85 1011 10 16.0934 0 0
6:53 am 06:53 Sunny 63 17.2 61 16.1 93 93 SW 7 11 29.84 1011 10 16.0934 0 0
7:53 am 07:53 Sunny 66 18.9 63 17.2 90 90 Calm 29.85 1011 10 16.0934 0 0
8:53 am 08:53 Sunny 69 20.6 64 17.8 84 84 SSW 6 9 29.85 1011 10 16.0934 0 0
9:53 am 09:53 Sunny 73 22.8 66 18.9 79 79 SSW 6 9 29.85 1011 10 16.0934 0 0
10:53 am 10:53 Sunny 77 25 67 19.4 71 71 SSW 6 9 29.84 1011 10 16.0934 0 0
11:53 am 11:53 Sunny 80 26.7 67 19.4 64 64 W 8 13 29.86 1011 10 16.0934 0 0
12:53 pm 12:53 Sunny 82 27.8 66 18.9 58 58 WSW 7 11 29.86 1011 10 16.0934 0 0
1:53 pm 13:53 Mostly Sunny 85 29.4 64 17.8 50 50 WSW 12 19 29.85 1011 10 16.0934 0 0
2:53 pm 14:53 Partly Cloudy 83 28.3 63 17.2 51 51 W 14 22 29.87 1011 10 16.0934 0 0
3:53 pm 15:53 Partly Cloudy 85 29.4 65 18.3 51 51 W 8 13 29.85 1011 10 16.0934 0 0
4:53 pm 16:53 Mostly Cloudy 83 28.3 64 17.8 53 53 NW 9 15 29.85 1011 10 16.0934 0 0
5:14 pm 17:14 Mostly Cloudy with Thunderstorms 82 27.8 64 17.8 55 55 VRB 7 11 29.82 1010 10 16.0934 0 0
5:53 pm 17:53 Sunny 76 24.4 63 17.2 64 64 SSW 7 11 29.86 1011 10 16.0934 0 0.0254
6:53 pm 18:53 Mostly Sunny 73 22.8 66 18.9 79 79 S 9 15 29.87 1011 10 16.0934 0 0.0254
7:53 pm 19:53 Sunny 73 22.8 67 19.4 81 81 SSW 3 6 29.86 1011 10 16.0934 0 0
8:53 pm 20:53 Clear 68 20 66 18.9 93 93 WSW 3 6 29.88 1012 10 16.0934 0 0
9:53 pm 21:53 Clear 67 19.4 65 18.3 93 93 Calm 29.89 1012 10 16.0934 0 0
10:34 pm 22:34 Clear with Mist and Fog 66 18.9 65 18.3 96 96 Calm 29.91 1013 2 3.21868 0 0
10:41 pm 22:41 Clear 66 18.9 65 18.3 96 96 Calm 29.91 1013 7 11.26538 0 0
10:53 pm 22:53 Clear 66 18.9 64 17.8 93 93 Calm 29.91 1013 7 11.26538 0 0
11:29 pm 23:29 Clear with Mist and Fog 66 18.9 65 18.3 96 96 Calm 29.92 1013 2.5 4.02335 0 0
11:36 pm 23:36 Clear with Mist and Fog 66 18.9 65 18.3 96 96 Calm 29.91 1013 4 6.43736 0 0
11:40 pm 23:40 Clear with Mist and Fog 66 18.9 65 18.3 96 96 Calm 29.91 1013 1.75 2.816345 0 0
11:47 pm 23:47 Clear with Fog 66 19 64 18 94 94 Calm 29.92 1013 0.25 0.402335 0 0
11:48 pm 23:48 Clear with Fog 66 18.9 65 18.3 96 96 Calm 29.91 1013 0.25 0.402335 0 0
11:56 pm 23:56 Mostly Cloudy with Fog 65 18.3 64 17.8 97 97 Calm 29.92 1013 0.25 0.402335 0 0

Powered by AerisWeather